EW6958 Weather Reports


time (UTC)temp
C
wind
direction
speed
KPH
gust
KPH
rain 1hr
cm
rain 24hr
cm
rain mn
cm
humidity
%
barometer
mb
20200922234219 11 0.0 0.0 0.00 0.00 0.00 75 1007.0
20200922233220 11 0.0 0.0 0.00 0.00 0.00 75 1006.0
20200922232220 12 0.0 0.0 0.00 0.00 0.00 75 1007.0
20200922231217 -17 0.0 0.0 0.00 0.00 0.00 1007.0
20200922230222 12 0.0 0.0 0.00 0.00 0.00 74 1007.0
20200922225216 12 0.0 0.0 0.00 0.00 0.00 74 1007.0
20200922224219 12 0.0 0.0 0.00 0.00 0.00 74 1007.0
20200922223217 -17 0.0 0.0 0.00 0.00 0.00 1007.0
20200922222225 -17 0.0 0.0 0.00 0.00 0.00 1007.0
20200922221220 12 0.0 0.0 0.00 0.00 0.00 73 1007.0
20200922220217 -17 0.0 0.0 0.00 0.00 0.00 1007.0
20200922215220 13 0.0 0.0 0.00 0.00 0.00 73 1008.0
20200922214217 13 0.0 0.0 0.00 0.00 0.00 72 1008.0
20200922213219 -17 0.0 0.0 0.00 0.00 0.00 1008.0
20200922212223 13 0.0 0.0 0.00 0.00 0.00 72 1008.0
20200922211221 13 0.0 0.0 0.00 0.00 0.00 73 1008.0
20200922210221 13 0.0 0.0 0.00 0.00 0.00 73 1007.0
20200922205237 13 0.0 0.0 0.00 0.00 0.00 73 1008.0
20200922204218 13 0.0 0.0 0.00 0.00 0.00 74 1008.0
20200922203217 -17 0.0 0.0 0.00 0.00 0.00 1008.0
20200922202220 14 0.0 0.0 0.00 0.00 0.00 72 1008.0
20200922201217 14 0.0 0.0 0.00 0.00 0.00 71 1008.0
20200922200223 15 89 3.2 3.2 0.00 0.00 0.00 72 1008.0
20200922195220 15 0.0 0.0 0.00 0.00 0.00 71 1008.0
20200922194217 15 315 1.6 3.2 0.00 0.00 0.00 71 1008.0
20200922193218 15 0.0 0.0 0.00 0.00 0.00 70
20200922192217 15 0.0 0.0 0.00 0.00 0.00 69
20200922191217 15 0.0 0.0 0.00 0.00 0.00 67 1008.0
20200922190218 16 0.0 0.0 0.00 0.00 0.00 65 1008.0
20200922185218 16 315 1.6 1.6 0.00 0.00 0.00 64 1008.0
20200922184219 16 0.0 0.0 0.00 0.00 0.00 64 1008.0
20200922183220 17 0.0 0.0 0.00 0.00 0.00 62 1008.0
20200922182223 17 0.0 0.0 0.00 0.00 0.00 59 1008.0
20200922181218 17 0.0 0.0 0.00 0.00 0.00 59 1008.0
20200922180223 -17 0.0 0.0 0.00 0.00 0.00 1008.0
20200922175218 -17 0.0 0.0 0.00 0.00 0.00 1008.0
20200922174220 18 0.0 0.0 0.00 0.00 0.00 52 1008.0
20200922173216 19 0.0 0.0 0.00 0.00 0.00 50 1008.0
20200922172218 20 315 1.6 1.6 0.00 0.00 0.00 47 1008.0
20200922171219 -17 0.0 0.0 0.00 0.00 0.00 1008.0
20200922170217 21 0.0 0.0 0.00 0.00 0.00 44 1008.0
20200922165217 21 0.0 0.0 0.00 0.00 0.00 43 1008.0
20200922164217 -17 293 0.0 1.6 0.00 0.00 0.00 1008.0
20200922163220 22 0.0 0.0 0.00 0.00 0.00 41 1008.0
20200922162217 -17 285 1.6 3.2 0.00 0.00 0.00 1008.0
20200922161218 23 293 1.6 3.2 0.00 0.00 0.00 39 1008.0
20200922160218 23 321 1.6 3.2 0.00 0.00 0.00 39 1008.0
20200922155225 23 322 1.6 4.8 0.00 0.00 0.00 38 1008.0
20200922154217 24 274 1.6 3.2 0.00 0.00 0.00 38 1008.0
20200922153221 24 333 3.2 6.4 0.00 0.00 0.00 38 1008.0
20200922152223 25 329 4.8 6.4 0.00 0.00 0.00 38 1008.0
20200922151217 25 286 3.2 4.8 0.00 0.00 0.00 37 1008.0
20200922150218 25 2 3.2 3.2 0.00 0.00 0.00 37 1009.0
20200922145226 26 269 9.7 11.3 0.00 0.00 0.00 36 1009.0
20200922144217 26 276 6.4 8.0 0.00 0.00 0.00 36 1009.0
20200922143218 25 327 4.8 9.7 0.00 0.00 0.00 37 1009.0
20200922142218 26 240 1.6 3.2 0.00 0.00 0.00 36 1009.0
20200922141220 -17 278 9.7 11.3 0.00 0.00 0.00 1009.0
20200922140218 26 277 4.8 4.8 0.00 0.00 0.00 36 1009.0
20200922135219 -17 246 6.4 6.4 0.00 0.00 0.00 1009.0
20200922134217 26 315 1.6 3.2 0.00 0.00 0.00 37 1009.0
20200922133223 26 233 3.2 4.8 0.00 0.00 0.00 37 1009.0
20200922132216 26 38 1.6 9.7 0.00 0.00 0.00 38 1009.0
20200922131228 26 271 4.8 6.4 0.00 0.00 0.00 38 1009.0
20200922130221 26 3 3.2 4.8 0.00 0.00 0.00 38 1010.0
20200922125225 26 319 6.4 6.4 0.00 0.00 0.00 38 1010.0
20200922124218 26 281 8.0 14.5 0.00 0.00 0.00 38 1010.0
20200922123222 26 255 6.4 9.7 0.00 0.00 0.00 38 1010.0
20200922122217 -17 281 9.7 12.9 0.00 0.00 0.00 1010.0
20200922121218 26 275 6.4 9.7 0.00 0.00 0.00 38 1010.0
20200922120218 26 272 4.8 6.4 0.00 0.00 0.00 39 1010.0
20200922115218 25 0.0 1.6 0.00 0.00 0.00 39 1010.0
20200922114221 25 298 4.8 6.4 0.00 0.00 0.00 40 1010.0
20200922113219 -17 293 4.8 12.9 0.00 0.00 0.00 1010.0
20200922112219 25 97 1.6 3.2 0.00 0.00 0.00 40 1009.0
20200922111218 25 247 1.6 4.8 0.00 0.00 0.00 41 1009.0
20200922110218 -17 328 1.6 6.4 0.00 0.00 0.00 1010.0
20200922105222 25 333 3.2 4.8 0.00 0.00 0.00 42 1010.0
20200922104218 24 315 1.6 3.2 0.00 0.00 0.00 42 1010.0
20200922103218 24 293 6.4 6.4 0.00 0.00 0.00 43 1011.0
20200922102219 -17 257 4.8 8.0 0.00 0.00 0.00 1011.0
20200922101220 23 279 4.8 6.4 0.00 0.00 0.00 44 1011.0
20200922100217 23 275 4.8 6.4 0.00 0.00 0.00 45 1011.0
20200922095217 23 276 3.2 4.8 0.00 0.00 0.00 46 1012.0
20200922094218 22 257 6.4 6.4 0.00 0.00 0.00 47 1012.0
20200922093220 -17 256 4.8 4.8 0.00 0.00 0.00 1012.0
20200922092220 21 263 3.2 4.8 0.00 0.00 0.00 51 1012.0
20200922091220 21 247 6.4 6.4 0.00 0.00 0.00 52 1012.0
20200922090218 -17 293 3.2 3.2 0.00 0.00 0.00 1012.0
20200922085217 20 267 3.2 3.2 0.00 0.00 0.00 56 1012.0
20200922084218 19 248 1.6 3.2 0.00 0.00 0.00 58 1012.0
20200922083218 18 322 0.0 1.6 0.00 0.00 0.00 61 1012.0
20200922082219 17 0.0 1.6 0.00 0.00 0.00 64 1012.0
20200922081218 16 315 0.0 1.6 0.00 0.00 0.00 65 1012.0
20200922080218 16 113 1.6 1.6 0.00 0.00 0.00 70 1012.0
20200922075220 15 36 1.6 3.2 0.00 0.00 0.00 73 1013.0
20200922074221 14 0.0 1.6 0.00 0.00 0.00 75 1013.0
20200922073217 13 56 0.0 1.6 0.00 0.00 0.00 79 1012.0
20200922072219 12 0.0 1.6 0.00 0.00 0.00 80 1012.0
20200922071217 12 84 1.6 3.2 0.00 0.00 0.00 83 1012.0
20200922070218 11 107 1.6 1.6 0.00 0.00 0.00 85 1012.0
20200922065217 10 0.0 0.0 0.00 0.00 0.00 86 1012.0
20200922064218 9 104 1.6 1.6 0.00 0.00 0.00 86 1012.0
20200922063217 8 0.0 0.0 0.00 0.00 0.00 83 1012.0
20200922062218 8 135 0.0 1.6 0.00 0.00 0.00 85 1012.0
20200922061218 8 0.0 0.0 0.00 0.00 0.00 84 1012.0
20200922060218 8 0.0 0.0 0.00 0.00 0.00 84 1012.0
20200922055219 8 0.0 0.0 0.00 0.00 0.00 84 1011.0
20200922054217 8 0.0 0.0 0.00 0.00 0.00 83 1011.0
20200922053217 7 0.0 0.0 0.00 0.00 0.00 83 1012.0
20200922052216 -17 0.0 0.0 0.00 0.00 0.00 1012.0
20200922051218 -17 0.0 0.0 0.00 0.00 0.00 1012.0
20200922050219 8 0.0 0.0 0.00 0.00 0.00 82 1012.0
20200922045218 -17 0.0 0.0 0.00 0.00 0.00 1012.0
20200922044222 8 0.0 0.0 0.00 0.00 0.00 82 1012.0
20200922043219 8 0.0 0.0 0.00 0.00 0.00 82 1012.0
20200922042219 8 0.0 0.0 0.00 0.00 0.00 82 1012.0
20200922041227 8 0.0 0.0 0.00 0.00 0.00 82 1012.0
20200922040220 8 0.0 0.0 0.00 0.00 0.00 82 1012.0
20200922035226 8 0.0 0.0 0.00 0.00 0.00 82 1011.0
20200922034218 8 0.0 0.0 0.00 0.00 0.00 82 1011.0
20200922033218 8 0.0 0.0 0.00 0.00 0.00 82 1012.0
20200922032220 9 203 1.6 1.6 0.00 0.00 0.00 82 1011.0
20200922031219 9 0.0 0.0 0.00 0.00 0.00 82 1011.0
20200922030217 9 0.0 0.0 0.00 0.00 0.00 81 1012.0
20200922025229 9 0.0 0.0 0.00 0.00 0.00 81 1012.0
20200922024218 9 0.0 0.0 0.00 0.00 0.00 81 1012.0
20200922023218 9 0.0 0.0 0.00 0.00 0.00 80 1012.0
20200922022221 9 0.0 0.0 0.00 0.00 0.00 80 1012.0
20200922021215 9 0.0 0.0 0.00 0.00 0.00 79 1012.0
20200922020220 9 0.0 0.0 0.00 0.00 0.00 79 1012.0
20200922015217 9 0.0 0.0 0.00 0.00 0.00 79 1012.0
20200922014221 10 0.0 0.0 0.00 0.00 0.00 78 1012.0
20200922013218 10 0.0 0.0 0.00 0.00 0.00 78 1013.0
20200922012220 10 0.0 0.0 0.00 0.00 0.00 77 1012.0
20200922011218 10 0.0 0.0 0.00 0.00 0.00 77 1012.0
20200922010220 10 0.0 0.0 0.00 0.00 0.00 77 1013.0
20200922005218 10 0.0 0.0 0.00 0.00 0.00 77 1013.0
20200922004217 -17 0.0 0.0 0.00 0.00 0.00 1013.0
20200922003218 10 0.0 0.0 0.00 0.00 0.00 77 1013.0
20200922002219 10 0.0 0.0 0.00 0.00 0.00 77 1013.0
20200922001219 11 0.0 0.0 0.00 0.00 0.00 77 1013.0
20200922000218 11 0.0 0.0 0.00 0.00 0.00 76 1013.0
20200921235220 11 0.0 0.0 0.00 0.00 0.00 76